Find Starlink 30819

NORAD ID: 58179 Int'l Des: 2023-167 Owner: SPXS Country: US Constellation: starlink operational
LEOCIRCULAR

Live Position

Loading 3D Globe...

About Starlink 30819

Description loading...

Upcoming Passes

Passes for default location (London). Set your location on the main map for personalized predictions.

Altitude History

Loading altitude history...

Two-Line Element Set

1 58179U 23167E 26124.65224549 .00006420 00000-0 24256-3 0 9995
2 58179 42.9979 187.3720 0001294 276.7131 83.3574 15.27586644139543
Epoch: May 4, 2026 • Age: 14 hours

Current Status

Altitude 483.1 km
Velocity 7.63 km/s
Sub-Earth Point 24.11°N, 99.66°W
Launch Date Oct 30, 2023
Age 2.5 years
Type internet

Technical Details

Classification Payload
Mass 730.00 kg
Dry Mass 700.00 kg
Total Mass 730.00 kg
Length 0.30 m
Diameter 4.10 m
Span 29.00 m
Shape Box + pan
Manufacturer SPXS
Bus Type Starlink V2M
Phase Status In Orbit
Owner/State SPXS/US

Most Searched